OBJECT AE, 63238

Orbit data source: Space-Track

You're viewing an Uncataloged Satellite

Recently launched and/or uncataloged satellites may have evolving metadata. Metadata may include but not limited to: Owner, Maufacturer, Bus, Motor, and Mission.

OBJECT AE, 63238 is a satellite in SSO that was launched on Sat, 15 Mar 2025 UTC via an FALCON 9 launch vehicle from the Air Force Western Test Range (AFWTR). Unknown objects in Earth's orbit typically refer to objects detected orbiting the Earth but have not yet been identified or cataloged. These objects could be anything from previously untracked satellites, spent rocket stages, debris from satellite collisions, or even natural meteoroids temporarily captured by Earth's gravity.

Loading next visibility...
Identifier
63238, 2025-052AE
Orbit
SSO
Country
Flag of TBDTBD
Related business
None
Manufacturer
Unknown
Mission
Operational Defense Calibration
Bus & Motor
Unknown
Mass
Unknown
Launch date (UTC)
2025-03-15 (9 months ago)
Launch vehicle
FALCON 9
Launch site
Air Force Western Test Range (AFWTR)
Object type
Unknown
Shape & HBR
Box, 0.1 m
Radar Cross Section
0.080 m², Small (<0.1 m²)

Expand to show TLE details & history
Last TLE update: 15 hours ago

TLE from 15 hours ago
0 OBJECT AE
1 63238U 25052AE  25347.20866746  .00025519  00000-0  10217-2 0  9991
2 63238  97.4144 238.5009 0009406  81.0079 279.2223 15.25002114 41614
Epoch: 2025-12-13T05:00Z
TLE epoch observation values (Epoch: 2025-12-13T05:00:28.868Z)
Latitude
-0.00003°
Longitude
81.24139°
Altitude
492.846 km
Speed
7.619 km/s
True Right ascension
15h 54m 00s
True Declination
0° 00' 00"
Sunlit
Object was in daylight at epoch
Visualization orbit readout
Latitude
Unknown
Longitude
Unknown
Altitude
Unknown
Speed
Unknown
Apparent Right ascension
Unknown
Apparent Declination
Unknown
Sunlit
N/A
Visualization observer readout
Local Sidereal Time
18:32:16
Azimuth
Unknown
Elevation
Unknown
Doppler factor
Unknown
Orbital elements
Apogee altitude
494.197 km
Perigee altitude
481.281 km
Semi-major axis
6,865.876 km
Eccentricity
0.00094
Inclination
97.4144°
RAAN
238.5009°
Arg. of periapsis
81.0079°
True anomaly
279.11589°
Mean anomaly
279.2223°
Eccentric anomaly
279.1691°
Mean motion
3.81504 °/min
Orbital period
94.36 mins
BSTAR
0.0010217
Loading maneuver chart data...
Computing Atmospheric mass density...
Loading historical data...
Loading historical data...
Loading historical data...
Loading historical data...
Loading historical data...
Loading historical data...
Loading historical data...

Documentation

Showing up to 5 results
|